1510700400.45,12910,7.81,73638.3,-5.69,-14.79,-14.29,0,*54
1510700401.71,12911,7.81,73642.5,-5.69,-14.79,-14.29,0,*55
1510700402.94,12912,7.81,73638.8,-5.71,-14.79,-14.23,0,*55
1510700404.19,12913,7.81,73638.3,-5.69,-14.75,-14.19,0,*58
1510700405.42,12914,7.81,73634.8,-5.69,-14.65,-14.15,0,*52
1510700406.65,12915,7.81,73636.0,-5.69,-14.65,-14.15,0,*53
1510700407.89,12916,7.81,73636.3,-5.71,-14.79,-14.33,0,*50
1510700409.14,12917,7.81,73632.8,-5.69,-14.75,-14.29,0,*5F
1510700410.37,12918,7.81,73632.0,-5.71,-14.79,-14.33,0,*5E
1510700411.63,12919,7.81,73636.0,-5.69,-14.75,-14.19,0,*52
1510700412.88,12920,7.81,73636.5,-5.69,-14.75,-14.19,0,*58
1510700414.12,12921,7.81,73634.8,-5.71,-14.79,-14.23,0,*55
1510700415.34,12922,7.81,73638.3,-5.67,-14.75,-14.19,0,*54
1510700416.58,12923,7.81,73636.8,-5.71,-14.79,-14.19,0,*5E
1510700417.83,12924,7.81,73632.0,-5.69,-14.75,-14.15,0,*50
1510700419.06,12925,7.81,73634.5,-5.69,-14.65,-14.19,0,*5C
1510700420.31,12926,7.81,73632.0,-5.69,-14.75,-14.19,0,*5E
1510700421.54,12927,7.81,73636.5,-5.69,-14.65,-14.15,0,*52
1510700422.77,12928,7.81,73634.5,-5.69,-14.65,-14.29,0,*52
1510700424.03,12929,7.81,73632.8,-5.69,-14.75,-14.29,0,*52
1510700425.28,12930,7.81,73638.8,-5.69,-14.75,-14.29,0,*5A
1510700426.51,12931,7.81,73636.3,-5.69,-14.65,-14.29,0,*5A
1510700427.73,12932,7.81,73634.0,-5.69,-14.65,-14.19,0,*5A
1510700428.97,12933,7.81,73638.0,-5.71,-14.79,-14.23,0,*56
1510700430.22,12934,7.81,73632.8,-5.69,-14.75,-14.19,0,*5D
1510700431.48,12935,7.81,73638.8,-5.69,-14.75,-14.23,0,*55
1510700432.73,12936,7.81,73636.8,-5.69,-14.75,-14.19,0,*5F
1510700433.98,12937,7.81,73638.0,-5.69,-14.75,-14.19,0,*5E
1510700435.22,12938,7.81,73632.8,-5.69,-14.61,-14.15,0,*58
1510700436.5,12939,7.81,73632.8,-5.69,-14.51,-14.05,0,*5B
1510700437.7,12940,7.81,73634.0,-5.71,-14.69,-14.11,0,*52
1510700438.93,12941,7.81,73632.5,-5.69,-14.61,-14.19,0,*5A
1510700440.16,12942,7.81,73636.0,-5.69,-14.65,-14.29,0,*5E
1510700441.39,12943,7.81,73634.8,-5.69,-14.65,-14.29,0,*5F
1510700442.62,12944,7.81,73632.3,-5.69,-14.65,-14.29,0,*58
1510700443.84,12945,7.81,73634.5,-5.69,-14.65,-14.19,0,*5A
1510700445.04,12946,7.81,73628.3,-5.67,-14.65,-14.19,0,*57
1510700446.3,12947,7.81,73630.5,-5.67,-14.51,-14.05,0,*5C
1510700447.5,12948,7.81,73628.8,-5.67,-14.65,-14.19,0,*59
1510700448.73,12949,7.81,73632.8,-5.69,-14.65,-14.29,0,*55
1510700449.96,12950,7.81,73630.8,-5.69,-14.65,-14.29,0,*5D
1510700451.19,12951,7.81,73630.0,-5.67,-14.75,-14.33,0,*58
1510700452.42,12952,7.81,73630.0,-5.67,-14.75,-14.29,0,*50
1510700453.64,12953,7.81,73630.3,-5.67,-14.75,-14.29,0,*51
1510700454.87,12954,7.81,73630.8,-5.67,-14.75,-14.29,0,*56
1510700456.1,12955,7.81,73624.8,-5.67,-14.75,-14.33,0,*5C
1510700457.32,12956,7.81,73628.8,-5.67,-14.75,-14.33,0,*5F
1510700458.61,12957,7.81,73628.0,-5.69,-14.79,-14.47,0,*5F
1510700459.86,12958,7.81,73630.3,-5.69,-14.79,-14.33,0,*53
1510700461.12,12959,7.81,73630.5,-5.69,-14.79,-14.33,0,*52
1510700462.35,12960,7.81,73632.5,-5.67,-14.75,-14.33,0,*5A
1510700463.57,12961,7.81,73634.3,-5.67,-14.75,-14.33,0,*5B
1510700464.83,12962,7.81,73630.8,-5.69,-14.75,-14.33,0,*56
1510700466.08,12963,7.81,73632.5,-5.69,-14.75,-14.33,0,*57
1510700467.33,12964,7.81,73634.8,-5.69,-14.75,-14.19,0,*58
1510700468.59,12965,7.81,73634.8,-5.69,-14.79,-14.29,0,*56
1510700469.82,12966,7.81,73632.0,-5.69,-14.65,-14.29,0,*58
1510700471.04,12967,7.81,73632.8,-5.69,-14.65,-14.29,0,*59
1510700472.27,12968,7.81,73632.5,-5.69,-14.65,-14.29,0,*56
1510700473.5,12969,7.81,73632.3,-5.69,-14.65,-14.29,0,*57
1510700474.73,12970,7.81,73636.0,-5.69,-14.65,-14.29,0,*5F
1510700475.96,12971,7.81,73634.3,-5.69,-14.65,-14.29,0,*5E
1510700477.18,12972,7.81,73632.3,-5.69,-14.65,-14.29,0,*5D
1510700478.41,12973,7.81,73634.0,-5.69,-14.61,-14.29,0,*58
1510700479.64,12974,7.81,73632.3,-5.69,-14.65,-14.29,0,*5B
1510700480.87,12975,7.81,73632.8,-5.69,-14.65,-14.29,0,*5A
1510700482.08,12976,7.81,73638.3,-5.71,-14.69,-14.23,0,*56
1510700483.3,12977,7.81,73632.8,-5.69,-14.65,-14.29,0,*58
1510700484.53,12978,7.81,73632.8,-5.69,-14.65,-14.19,0,*54
1510700485.76,12979,7.81,73638.8,-5.69,-14.65,-14.29,0,*56
1510700486.99,12980,7.81,73636.3,-5.69,-14.65,-14.29,0,*50
1510700488.21,12981,7.81,73636.3,-5.69,-14.65,-14.19,0,*52
1510700489.44,12982,7.81,73634.5,-5.69,-14.61,-14.29,0,*56
1510700490.65,12983,7.81,73632.0,-5.71,-14.69,-14.33,0,*5D
1510700491.85,12984,7.81,73628.5,-5.71,-14.69,-14.23,0,*5B
1510700493.08,12985,7.81,73634.3,-5.69,-14.65,-14.29,0,*55
1510700494.31,12986,7.81,73632.8,-5.69,-14.65,-14.19,0,*55
1510700495.51,12987,7.81,73632.3,-5.71,-14.69,-14.37,0,*5D
1510700496.74,12988,7.81,73632.0,-5.69,-14.65,-14.33,0,*53
1510700497.94,12989,7.81,73632.5,-5.71,-14.69,-14.37,0,*53
1510700499.17,12990,7.81,73634.0,-5.69,-14.65,-14.33,0,*5A
1510700500.37,12991,7.81,73632.8,-5.71,-14.69,-14.37,0,*5A
1510700501.57,12992,7.81,73634.0,-5.71,-14.69,-14.37,0,*59
1510700502.8,12993,7.81,73634.5,-5.69,-14.65,-14.33,0,*59
1510700504.03,12994,7.81,73634.8,-5.69,-14.65,-14.33,0,*5E
1510700505.26,12995,7.81,73636.3,-5.69,-14.65,-14.33,0,*5F
1510700506.46,12996,7.88,73638.3,-5.71,-14.65,-14.37,0,*51
1510700507.69,12997,7.81,73632.8,-5.69,-14.65,-14.29,0,*56
1510700508.89,12998,7.81,73634.8,-5.71,-14.69,-14.33,0,*57
1510700510.12,12999,7.81,73636.3,-5.69,-14.61,-14.29,0,*5C
1510700511.33,13000,7.81,73636.0,-5.71,-14.69,-14.33,0,*5E
1510700512.53,13001,7.81,73636.0,-5.71,-14.69,-14.33,0,*5F
1510700513.73,13002,7.81,73638.5,-5.71,-14.69,-14.33,0,*5C
1510700514.96,13003,7.81,73638.5,-5.69,-14.65,-14.29,0,*53
1510700516.17,13004,7.81,73636.5,-5.71,-14.65,-14.33,0,*56
1510700517.38,13005,7.81,73636.8,-5.71,-14.65,-14.23,0,*56
1510700518.61,13006,7.81,73638.3,-5.69,-14.65,-14.29,0,*56
1510700519.83,13007,7.88,73640.8,-5.69,-14.61,-14.19,0,*50
1510700521.04,13008,7.81,73638.3,-5.71,-14.69,-14.33,0,*56
1510700522.24,13009,7.81,73636.3,-5.71,-14.65,-14.33,0,*5B
1510700523.45,13010,7.81,73638.3,-5.71,-14.69,-14.29,0,*54
1510700524.65,13011,7.81,73636.5,-5.71,-14.69,-14.33,0,*5E
1510700525.85,13012,7.81,73638.3,-5.71,-14.69,-14.33,0,*5D
1510700527.08,13013,7.81,73638.0,-5.69,-14.61,-14.29,0,*56
1510700528.32,13014,7.81,73638.8,-5.71,-14.55,-14.23,0,*55
1510700529.56,13015,7.81,73636.3,-5.71,-14.55,-14.19,0,*5D
1510700530.8,13016,7.81,73638.3,-5.71,-14.51,-14.19,0,*5A
1510700532.04,13017,7.81,73638.3,-5.71,-14.55,-14.23,0,*56
1510700533.31,13018,7.81,73640.3,-5.69,-14.47,-14.19,0,*5A
1510700534.55,13019,7.81,73636.3,-5.71,-14.51,-14.23,0,*5C
1510700535.79,13020,7.81,73638.8,-5.71,-14.51,-14.11,0,*57
1510700537.03,13021,7.81,73638.8,-5.71,-14.37,-14.05,0,*53
1510700538.27,13022,7.81,73636.8,-5.71,-14.37,-14.05,0,*50
1510700539.53,13023,7.81,73632.0,-5.69,-14.29,-14.01,0,*53
1510700540.79,13024,7.81,73638.8,-5.69,-14.33,-14.01,0,*5F
1510700542.03,13025,7.81,73634.5,-5.71,-14.23,-14.05,0,*52
1510700543.32,13026,7.81,73636.8,-5.69,-14.43,-14.01,0,*5A
1510700544.57,13027,7.81,73638.5,-5.69,-14.33,-14.05,0,*58
1510700545.86,13028,7.81,73636.0,-5.69,-14.43,-14.05,0,*50
1510700547.12,13029,7.81,73632.8,-5.69,-14.43,-14.15,0,*50
1510700548.38,13030,7.81,73632.8,-5.69,-14.33,-14.05,0,*5E
1510700549.66,13031,7.81,73632.8,-5.69,-14.43,-14.05,0,*58
1510700550.92,13032,7.81,73634.8,-5.67,-14.47,-14.05,0,*51
1510700552.19,13033,7.81,73630.8,-5.67,-14.47,-14.05,0,*50
1510700553.43,13034,7.81,73634.5,-5.67,-14.47,-14.19,0,*5A
1510700554.66,13035,7.81,73636.0,-5.67,-14.51,-14.19,0,*5C
1510700555.9,13036,7.81,73632.3,-5.67,-14.51,-14.19,0,*5F
1510700557.13,13037,7.81,73638.0,-5.67,-14.47,-14.29,0,*5A
1510700558.34,13038,7.81,73632.5,-5.67,-14.61,-14.29,0,*51
1510700559.54,13039,7.81,73636.5,-5.67,-14.65,-14.33,0,*5F
1510700560.74,13040,7.81,73636.5,-5.67,-14.61,-14.33,0,*55
1510700561.94,13041,7.81,73638.3,-5.67,-14.65,-14.33,0,*50
1510700563.14,13042,7.81,73640.5,-5.67,-14.65,-14.33,0,*53
1510700564.37,13043,7.81,73636.5,-5.65,-14.65,-14.33,0,*50
1510700565.57,13044,7.81,73636.0,-5.67,-14.61,-14.33,0,*51
1510700566.8,13045,7.81,73638.8,-5.67,-14.65,-14.43,0,*53
1510700568.0,13046,7.81,73638.0,-5.67,-14.61,-14.33,0,*53
1510700569.21,13047,7.81,73638.3,-5.71,-14.65,-14.33,0,*51
1510700570.45,13048,7.81,73642.5,-5.69,-14.65,-14.43,0,*50
1510700571.68,13049,7.81,73638.3,-5.69,-14.65,-14.33,0,*56
1510700572.91,13050,7.81,73636.5,-5.69,-14.65,-14.33,0,*5E
1510700574.14,13051,7.81,73642.8,-5.69,-14.65,-14.29,0,*54
1510700575.37,13052,7.81,73638.5,-5.69,-14.61,-14.33,0,*58
1510700576.6,13053,7.81,73636.8,-5.69,-14.61,-14.33,0,*59
1510700577.86,13054,7.81,73638.5,-5.69,-14.51,-14.33,0,*5D
1510700579.12,13055,7.81,73638.0,-5.69,-14.51,-14.19,0,*54
1510700580.35,13056,7.81,73634.5,-5.69,-14.61,-14.29,0,*57
1510700581.58,13057,7.81,73634.3,-5.69,-14.61,-14.29,0,*56
1510700582.81,13058,7.81,73636.5,-5.69,-14.65,-14.29,0,*5D
1510700584.04,13059,7.81,73642.0,-5.69,-14.61,-14.29,0,*58
1510700585.27,13060,7.81,73638.3,-5.69,-14.61,-14.33,0,*59
1510700586.53,13061,7.81,73636.5,-5.69,-14.51,-14.19,0,*53
1510700587.8,13062,7.81,73638.3,-5.69,-14.47,-14.29,0,*54
1510700589.01,13063,7.81,73640.8,-5.71,-14.37,-14.19,0,*58
1510700590.27,13064,7.81,73636.5,-5.69,-14.43,-14.15,0,*59
1510700591.52,13065,7.81,73636.0,-5.69,-14.43,-14.19,0,*54
1510700592.79,13066,7.81,73636.3,-5.69,-14.47,-14.19,0,*53
1510700594.05,13067,7.81,73638.8,-5.69,-14.43,-14.19,0,*56
1510700595.3,13068,7.81,73636.3,-5.69,-14.33,-14.05,0,*53
1510700596.56,13069,7.88,73642.8,-5.67,-14.43,-14.05,0,*5B
1510700597.82,13070,7.81,73636.3,-5.67,-14.43,-14.05,0,*53
1510700599.05,13071,7.81,73636.5,-5.67,-14.33,-14.01,0,*51
1510700600.28,13072,7.81,73634.8,-5.67,-14.29,-14.01,0,*59
1510700601.54,13073,7.81,73636.5,-5.65,-14.29,-14.05,0,*5E
1510700602.75,13074,7.81,73634.5,-5.67,-14.33,-14.15,0,*51
1510700604.01,13075,7.81,73638.8,-5.65,-14.29,-14.05,0,*58
1510700605.24,13076,7.81,73632.5,-5.67,-14.43,-14.15,0,*54
1510700606.48,13077,7.81,73634.8,-5.67,-14.47,-14.19,0,*5D
1510700607.74,13078,7.81,73634.8,-5.65,-14.43,-14.19,0,*54
1510700608.94,13079,7.81,73634.3,-5.67,-14.33,-14.19,0,*50
1510700610.17,13080,7.81,73630.8,-5.67,-14.43,-14.29,0,*52
1510700611.44,13081,7.81,73636.5,-5.65,-14.47,-14.19,0,*56
1510700612.69,13082,7.81,73634.0,-5.65,-14.43,-14.19,0,*51
1510700613.92,13083,7.81,73628.5,-5.67,-14.43,-14.29,0,*51
1510700615.19,13084,7.81,73634.5,-5.65,-14.47,-14.29,0,*50
1510700616.45,13085,7.81,73632.8,-5.65,-14.47,-14.29,0,*51
1510700617.69,13086,7.81,73632.8,-5.67,-14.51,-14.29,0,*57
1510700618.92,13087,7.81,73634.5,-5.67,-14.51,-14.33,0,*5D
1510700620.16,13088,7.81,73632.8,-5.67,-14.51,-14.33,0,*52
1510700621.4,13089,7.81,73634.0,-5.67,-14.47,-14.29,0,*5F
1510700622.64,13090,7.81,73630.0,-5.67,-14.47,-14.29,0,*57
1510700623.9,13091,7.81,73632.5,-5.65,-14.51,-14.33,0,*58
1510700625.17,13092,7.81,73630.5,-5.65,-14.47,-14.33,0,*5C
1510700626.43,13093,7.81,73630.8,-5.65,-14.47,-14.19,0,*55
1510700627.69,13094,7.81,73634.0,-5.65,-14.47,-14.33,0,*5A
1510700628.93,13095,7.81,73638.3,-5.67,-14.47,-14.33,0,*59
1510700630.21,13096,7.81,73632.8,-5.65,-14.51,-14.43,0,*58
1510700631.43,13097,7.81,73632.0,-5.67,-14.65,-14.43,0,*5C
1510700632.66,13098,7.81,73634.3,-5.67,-14.65,-14.43,0,*53
1510700633.91,13099,7.81,73634.8,-5.65,-14.61,-14.43,0,*54
1510700635.11,13100,7.81,73634.3,-5.67,-14.61,-14.33,0,*50
1510700636.33,13101,7.81,73636.5,-5.67,-14.61,-14.43,0,*56
1510700637.58,13102,7.81,73636.3,-5.65,-14.61,-14.43,0,*57
1510700638.8,13103,7.81,73634.3,-5.67,-14.65,-14.43,0,*50
1510700640.03,13104,7.81,73636.5,-5.67,-14.65,-14.51,0,*54
1510700641.26,13105,7.81,73634.0,-5.67,-14.65,-14.47,0,*52
1510700642.49,13106,7.81,73634.5,-5.67,-14.65,-14.47,0,*51
1510700643.73,13107,7.81,73634.3,-5.67,-14.61,-14.47,0,*54
1510700644.98,13108,7.81,73632.8,-5.65,-14.61,-14.47,0,*59
1510700646.22,13109,7.81,73634.0,-5.67,-14.61,-14.47,0,*5A
1510700647.44,13110,7.81,73638.3,-5.67,-14.65,-14.43,0,*52
1510700648.66,13111,7.81,73636.0,-5.67,-14.65,-14.43,0,*53
1510700649.89,13112,7.81,73638.5,-5.67,-14.65,-14.47,0,*54
1510700651.12,13113,7.81,73642.8,-5.67,-14.65,-14.47,0,*55
1510700652.35,13114,7.81,73636.5,-5.67,-14.65,-14.47,0,*52
1510700653.6,13115,7.81,73638.5,-5.69,-14.65,-14.43,0,*59
1510700654.86,13116,7.81,73638.0,-5.69,-14.65,-14.47,0,*5E
1510700656.11,13117,7.81,73636.0,-5.69,-14.65,-14.43,0,*5B
1510700657.36,13118,7.81,73638.5,-5.69,-14.61,-14.43,0,*50
1510700658.59,13119,7.81,73636.3,-5.71,-14.69,-14.47,0,*54
1510700659.79,13120,7.81,73638.3,-5.67,-14.65,-14.33,0,*56
1510700661.01,13121,7.81,73636.5,-5.67,-14.65,-14.43,0,*50
1510700662.21,13122,7.81,73638.8,-5.67,-14.65,-14.29,0,*5F
1510700663.41,13123,7.81,73638.5,-5.67,-14.65,-14.33,0,*55
1510700664.64,13124,7.81,73638.8,-5.69,-14.61,-14.33,0,*58
1510700665.87,13125,7.81,73636.8,-5.69,-14.61,-14.33,0,*59
1510700667.12,13126,7.81,73636.3,-5.69,-14.65,-14.43,0,*59
1510700668.35,13127,7.81,73638.0,-5.71,-14.69,-14.47,0,*59
1510700669.6,13128,7.81,73636.3,-5.69,-14.61,-14.43,0,*53
1510700670.83,13129,7.81,73638.5,-5.69,-14.61,-14.33,0,*55
1510700672.06,13130,7.81,73636.8,-5.69,-14.65,-14.33,0,*59
1510700673.31,13131,7.81,73640.0,-5.69,-14.61,-14.43,0,*5B
1510700674.54,13132,7.81,73634.8,-5.69,-14.65,-14.33,0,*5B
1510700675.79,13133,7.81,73638.0,-5.69,-14.61,-14.43,0,*59
1510700677.02,13134,7.81,73636.0,-5.69,-14.61,-14.33,0,*59
1510700678.22,13135,7.81,73632.5,-5.71,-14.65,-14.33,0,*55
1510700679.47,13136,7.81,73636.5,-5.69,-14.61,-14.43,0,*5C
1510700680.7,13137,7.81,73638.0,-5.69,-14.61,-14.33,0,*5A
1510700681.97,13138,7.81,73636.3,-5.69,-14.47,-14.19,0,*59
1510700683.23,13139,7.81,73638.8,-5.69,-14.51,-14.29,0,*5C
1510700684.5,13140,7.81,73638.0,-5.69,-14.47,-14.33,0,*5E
1510700685.76,13141,7.81,73634.8,-5.69,-14.51,-14.29,0,*53
1510700687.03,13142,7.81,73638.8,-5.69,-14.47,-14.29,0,*57
1510700688.26,13143,7.81,73634.8,-5.71,-14.55,-14.33,0,*57
1510700689.52,13144,7.81,73634.0,-5.69,-14.51,-14.19,0,*55
1510700690.76,13145,7.81,73636.5,-5.71,-14.51,-14.33,0,*55
1510700692.03,13146,7.81,73636.5,-5.69,-14.47,-14.29,0,*53
1510700693.24,13147,7.81,73640.8,-5.71,-14.37,-14.11,0,*57
1510700694.45,13148,7.81,73636.3,-5.71,-14.19,-14.11,0,*54
1510700695.68,13149,7.81,73636.8,-5.69,-14.29,-13.93,0,*52
1510700696.97,13150,7.81,73638.3,-5.69,-14.05,-14.01,0,*58
1510700698.22,13151,7.81,73640.8,-5.69,-13.93,-13.79,0,*59
1510700699.47,13152,7.81,73638.8,-5.69,-13.87,-13.73,0,*55
1510700700.76,13153,7.81,73634.0,-5.69,-14.01,-13.87,0,*56
1510700702.03,13154,7.81,73634.3,-5.69,-14.15,-14.01,0,*5D
1510700703.29,13155,7.81,73634.0,-5.65,-14.19,-14.05,0,*58
1510700704.5,13156,7.81,73636.5,-5.67,-14.33,-14.15,0,*50
1510700705.73,13157,7.81,73634.8,-5.67,-14.43,-14.19,0,*5A
1510700706.97,13158,7.81,73634.5,-5.67,-14.47,-14.19,0,*51
1510700708.2,13159,7.81,73634.5,-5.67,-14.43,-14.19,0,*54
1510700709.43,13160,7.81,73636.8,-5.67,-14.43,-14.19,0,*5E
1510700710.66,13161,7.81,73636.3,-5.67,-14.43,-14.19,0,*5F
1510700711.89,13162,7.81,73638.3,-5.69,-14.29,-14.15,0,*52
1510700713.13,13163,7.81,73640.0,-5.67,-14.19,-14.05,0,*5F
1510700714.37,13164,7.81,73638.5,-5.67,-14.15,-14.05,0,*54
1510700715.61,13165,7.81,73636.5,-5.67,-14.15,-14.05,0,*55
1510700716.84,13166,7.81,73636.3,-5.67,-14.29,-14.05,0,*59
1510700718.05,13167,7.81,73638.3,-5.67,-14.29,-14.15,0,*59
1510700719.26,13168,7.81,73634.8,-5.67,-14.19,-14.15,0,*55
1510700720.49,13169,7.81,73638.5,-5.67,-14.43,-14.19,0,*57
1510700721.72,13170,7.81,73638.0,-5.67,-14.43,-14.19,0,*5F
1510700722.95,13171,7.81,73632.5,-5.67,-14.43,-14.29,0,*5D
1510700724.18,13172,7.81,73636.5,-5.67,-14.43,-14.29,0,*5E
1510700725.42,13173,7.81,73636.3,-5.67,-14.51,-14.29,0,*5C
1510700726.66,13174,7.81,73632.5,-5.67,-14.47,-14.29,0,*5C
1510700727.91,13175,7.81,73636.0,-5.67,-14.43,-14.43,0,*55
1510700729.15,13176,7.81,73634.0,-5.67,-14.47,-14.33,0,*55
1510700730.38,13177,7.81,73636.5,-5.67,-14.43,-14.29,0,*5B
1510700731.64,13178,7.81,73632.0,-5.65,-14.43,-14.29,0,*56
1510700732.9,13179,7.81,73636.5,-5.65,-14.43,-14.29,0,*57
1510700734.14,13180,7.81,73638.3,-5.67,-14.47,-14.33,0,*5C
1510700735.4,13181,7.81,73634.3,-5.65,-14.47,-14.33,0,*5F
1510700736.67,13182,7.81,73632.0,-5.69,-14.47,-14.33,0,*50
1510700737.95,13183,7.81,73638.8,-5.69,-14.51,-14.43,0,*51
1510700739.21,13184,7.81,73638.5,-5.69,-14.51,-14.33,0,*51
1510700740.5,13185,7.81,73638.3,-5.69,-14.47,-14.43,0,*50
1510700741.76,13186,7.81,73634.5,-5.69,-14.51,-14.33,0,*53
1510700743.04,13187,7.81,73638.3,-5.69,-14.51,-14.43,0,*55
1510700744.31,13188,7.81,73636.0,-5.71,-14.55,-14.47,0,*53
1510700745.57,13189,7.81,73632.8,-5.69,-14.47,-14.29,0,*50
1510700746.84,13190,7.81,73636.0,-5.69,-14.47,-14.33,0,*53
1510700748.13,13191,7.81,73636.0,-5.69,-14.47,-14.43,0,*55
1510700749.39,13192,7.81,73638.0,-5.69,-14.51,-14.33,0,*56
1510700750.65,13193,7.81,73636.8,-5.69,-14.47,-14.33,0,*50
1510700751.89,13194,7.81,73642.3,-5.67,-14.51,-14.33,0,*5E
1510700753.18,13195,7.81,73638.3,-5.69,-14.51,-14.47,0,*52
1510700754.45,13196,7.81,73640.3,-5.69,-14.47,-14.33,0,*55
1510700755.7,13197,7.81,73636.3,-5.67,-14.51,-14.43,0,*5A
1510700756.94,13198,7.81,73638.3,-5.67,-14.47,-14.33,0,*55
1510700758.23,13199,7.81,73638.5,-5.69,-14.47,-14.43,0,*5D
1510700759.49,13200,7.81,73636.5,-5.69,-14.47,-14.33,0,*59
1510700760.75,13201,7.81,73642.3,-5.69,-14.51,-14.33,0,*5F
1510700762.04,13202,7.81,73638.0,-5.69,-14.47,-14.43,0,*5C
1510700763.32,13203,7.81,73642.3,-5.69,-14.51,-14.43,0,*5A
1510700764.59,13204,7.81,73638.3,-5.69,-14.47,-14.33,0,*5D
1510700765.85,13205,7.81,73642.8,-5.69,-14.47,-14.33,0,*5C
1510700767.14,13206,7.81,73642.0,-5.69,-14.47,-14.43,0,*58
1510700768.42,13207,7.81,73640.0,-5.69,-14.47,-14.43,0,*59
1510700769.71,13208,7.81,73638.3,-5.69,-14.47,-14.43,0,*56
1510700770.98,13209,7.81,73636.5,-5.71,-14.51,-14.47,0,*5D
1510700772.25,13210,7.81,73638.3,-5.71,-14.55,-14.47,0,*51
1510700773.54,13211,7.81,73638.3,-5.69,-14.51,-14.47,0,*5D
1510700774.84,13212,7.81,73640.0,-5.69,-14.47,-14.47,0,*59
1510700776.13,13213,7.81,73638.5,-5.69,-14.51,-14.47,0,*5F
1510700777.42,13214,7.81,73636.0,-5.69,-14.51,-14.47,0,*58
1510700778.71,13215,7.81,73636.8,-5.69,-14.51,-14.47,0,*59
1510700780.0,13216,7.81,73638.8,-5.69,-14.51,-14.43,0,*5E
1510700781.28,13217,7.81,73634.5,-5.69,-14.51,-14.43,0,*5F
1510700782.56,13218,7.81,73640.8,-5.69,-14.51,-14.43,0,*50
1510700783.81,13219,7.81,73638.8,-5.71,-14.47,-14.37,0,*5C
1510700785.08,13220,7.81,73642.5,-5.71,-14.51,-14.47,0,*56
1510700786.36,13221,7.81,73642.5,-5.69,-14.47,-14.43,0,*5D
1510700787.63,13222,7.81,73640.8,-5.69,-14.47,-14.33,0,*59
1510700788.91,13223,7.81,73642.5,-5.69,-14.43,-14.43,0,*5B
1510700790.15,13224,7.81,73642.5,-5.71,-14.47,-14.37,0,*52
1510700791.4,13225,7.81,73640.3,-5.71,-14.47,-14.37,0,*53
1510700792.61,13226,7.81,73638.5,-5.71,-14.37,-14.37,0,*57
1510700793.84,13227,7.81,73642.3,-5.69,-14.33,-14.29,0,*54
1510700795.1,13228,7.81,73638.5,-5.69,-14.43,-14.29,0,*5C
1510700796.35,13229,7.81,73638.3,-5.69,-14.33,-14.43,0,*56
1510700797.61,13230,7.81,73638.3,-5.69,-14.43,-14.33,0,*5E
1510700798.87,13231,7.81,73640.3,-5.69,-14.43,-14.33,0,*5F
1510700800.1,13232,7.81,73636.3,-5.69,-14.33,-14.33,0,*5B
1510700801.36,13233,7.81,73636.5,-5.69,-14.43,-14.33,0,*5D
1510700802.62,13234,7.81,73634.0,-5.69,-14.43,-14.29,0,*51
1510700803.88,13235,7.81,73632.5,-5.69,-14.47,-14.33,0,*5F
1510700805.15,13236,7.81,73638.5,-5.69,-14.47,-14.33,0,*5C
1510700806.41,13237,7.81,73638.5,-5.69,-14.47,-14.33,0,*5D
1510700807.65,13238,7.81,73638.0,-5.71,-14.51,-14.37,0,*58
1510700808.92,13239,7.81,73638.8,-5.69,-14.47,-14.33,0,*53
1510700810.2,13240,7.81,73634.5,-5.69,-14.43,-14.43,0,*5E
1510700811.48,13241,7.81,73638.8,-5.69,-14.47,-14.43,0,*5B
1510700812.77,13242,7.81,73638.0,-5.69,-14.47,-14.43,0,*58
1510700814.05,13243,7.81,73638.5,-5.69,-14.51,-14.43,0,*5E
1510700815.29,13244,7.81,73638.8,-5.71,-14.47,-14.37,0,*54
1510700816.55,13245,7.81,73636.3,-5.69,-14.43,-14.33,0,*5C
1510700817.82,13246,7.81,73640.0,-5.69,-14.47,-14.33,0,*5B
1510700819.11,13247,7.81,73642.3,-5.69,-14.47,-14.47,0,*59
1510700820.38,13248,7.81,73636.8,-5.69,-14.47,-14.33,0,*55
1510700821.66,13249,7.81,73636.5,-5.69,-14.47,-14.43,0,*53
1510700822.94,13250,7.81,73642.3,-5.71,-14.47,-14.47,0,*56
1510700824.21,13251,7.81,73640.3,-5.71,-14.47,-14.47,0,*57
1510700825.49,13252,7.81,73638.0,-5.71,-14.51,-14.47,0,*53
1510700826.75,13253,7.81,73638.0,-5.71,-14.55,-14.51,0,*51
1510700828.05,13254,7.81,73638.8,-5.69,-14.47,-14.47,0,*5B
1510700829.31,13255,7.81,73636.3,-5.71,-14.51,-14.51,0,*53
1510700830.61,13256,7.81,73636.3,-5.69,-14.47,-14.47,0,*59
1510700831.89,13257,7.81,73638.0,-5.69,-14.43,-14.51,0,*5B
1510700833.16,13258,7.81,73638.3,-5.71,-14.55,-14.51,0,*5A
1510700834.44,13259,7.81,73638.3,-5.71,-14.47,-14.47,0,*5F
1510700835.73,13260,7.81,73642.5,-5.69,-14.51,-14.47,0,*5B
1510700837.02,13261,7.81,73638.5,-5.69,-14.47,-14.47,0,*5D
1510700838.29,13262,7.81,73638.0,-5.71,-14.51,-14.51,0,*57
1510700839.56,13263,7.81,73640.3,-5.71,-14.51,-14.47,0,*51
1510700840.83,13264,7.81,73640.5,-5.71,-14.51,-14.47,0,*56
1510700842.11,13265,7.81,73636.3,-5.71,-14.51,-14.47,0,*57
1510700843.37,13266,7.81,73638.3,-5.71,-14.51,-14.51,0,*53
1510700844.64,13267,7.81,73636.8,-5.71,-14.51,-14.55,0,*56
1510700845.91,13268,7.81,73636.0,-5.71,-14.51,-14.51,0,*5D
1510700847.21,13269,7.81,73636.5,-5.69,-14.47,-14.47,0,*55
1510700848.48,13270,7.81,73636.3,-5.71,-14.47,-14.51,0,*53
1510700849.75,13271,7.81,73636.8,-5.71,-14.51,-14.51,0,*55
1510700851.01,13272,7.81,73638.8,-5.71,-14.55,-14.51,0,*52
1510700852.31,13273,7.81,73638.3,-5.69,-14.47,-14.47,0,*5E
1510700853.58,13274,7.81,73634.3,-5.71,-14.51,-14.55,0,*54
1510700854.85,13275,7.81,73638.3,-5.71,-14.47,-14.51,0,*56
1510700856.11,13276,7.81,73636.8,-5.71,-14.55,-14.51,0,*56
1510700857.38,13277,7.81,73640.3,-5.71,-14.51,-14.55,0,*57
1510700858.65,13278,7.81,73636.5,-5.71,-14.51,-14.47,0,*5B
1510700859.92,13279,7.81,73638.0,-5.71,-14.55,-14.55,0,*5D
1510700861.18,13280,7.81,73642.3,-5.71,-14.55,-14.51,0,*5F
1510700862.45,13281,7.81,73642.8,-5.71,-14.55,-14.51,0,*5E
1510700863.72,13282,7.81,73640.8,-5.71,-14.47,-14.51,0,*5E
1510700864.99,13283,7.81,73638.3,-5.71,-14.51,-14.47,0,*5F
1510700866.26,13284,7.81,73640.3,-5.71,-14.55,-14.51,0,*5B
1510700867.53,13285,7.81,73638.3,-5.71,-14.51,-14.55,0,*5A
1510700868.82,13286,7.81,73640.3,-5.69,-14.47,-14.51,0,*53
1510700870.09,13287,7.81,73638.5,-5.71,-14.51,-14.51,0,*5C
1510700871.38,13288,7.81,73640.8,-5.69,-14.47,-14.47,0,*5A
1510700872.65,13289,7.81,73640.0,-5.71,-14.51,-14.51,0,*52
1510700873.92,13290,7.81,73642.8,-5.71,-14.55,-14.55,0,*5A
1510700875.15,13291,7.81,73636.3,-5.73,-14.61,-14.61,0,*59
1510700876.4,13292,7.81,73636.8,-5.73,-14.61,-14.55,0,*5D
1510700877.66,13293,7.81,73642.5,-5.73,-14.55,-14.61,0,*5C
1510700878.95,13294,7.81,73636.8,-5.73,-14.55,-14.55,0,*5C
1510700880.24,13295,7.81,73640.0,-5.73,-14.55,-14.55,0,*5D
1510700881.52,13296,7.81,73638.5,-5.73,-14.55,-14.55,0,*5E
1510700882.81,13297,7.81,73642.5,-5.73,-14.55,-14.55,0,*5F
1510700884.09,13298,7.81,73640.3,-5.73,-14.55,-14.55,0,*50
1510700885.32,13299,7.81,73642.5,-5.73,-14.61,-14.61,0,*51
1510700886.58,13300,7.81,73636.3,-5.73,-14.55,-14.61,0,*57
1510700887.87,13301,7.81,73644.0,-5.73,-14.55,-14.55,0,*51
1510700889.15,13302,7.81,73642.8,-5.73,-14.55,-14.55,0,*52
1510700890.44,13303,7.81,73642.8,-5.73,-14.55,-14.55,0,*53
1510700891.7,13304,7.81,73636.8,-5.75,-14.55,-14.55,0,*52
1510700892.99,13305,7.81,73642.3,-5.73,-14.51,-14.55,0,*51
1510700894.25,13306,7.81,73638.3,-5.73,-14.55,-14.61,0,*51
1510700895.51,13307,7.81,73640.5,-5.73,-14.55,-14.61,0,*50
1510700896.77,13308,7.81,73640.0,-5.73,-14.55,-14.61,0,*5F
1510700898.06,13309,7.81,73642.5,-5.73,-14.55,-14.55,0,*59
1510700899.29,13310,7.81,73640.3,-5.73,-14.61,-14.61,0,*51
1510700900.55,13311,7.81,73642.8,-5.73,-14.51,-14.61,0,*53
1510700901.82,13312,7.81,73642.3,-5.73,-14.51,-14.61,0,*50
1510700903.05,13313,7.81,73638.8,-5.75,-14.51,-14.69,0,*5F
1510700904.31,13314,7.81,73638.0,-5.75,-14.55,-14.55,0,*53
1510700905.58,13315,7.81,73638.8,-5.75,-14.51,-14.55,0,*56
1510700906.87,13316,7.81,73640.8,-5.73,-14.51,-14.51,0,*57